Wind_Speed
39 36 31 28 27 25 22 19 17 15 14 12 11 10 9 8 8 7 7 8 9 9
37 34 31 28 26 24 22 20 18 17 15 13 12 10 9 8 7 7 8 9 10 10
33 30 28 27 26 24 23 21 19 17 14 12 11 10 9 8 7 7 8 9 10 11
30 28 27 26 25 24 23 20 17 15 13 11 10 9 8 7 8 8 9 10 11 11
29 28 27 26 25 22 19 17 15 13 11 10 9 8 7 7 8 9 9 10 11 12
29 27 26 24 22 20 17 15 13 12 10 8 7 6 5 7 10 11 11 11 12 13
26 24 22 20 17 15 13 12 10 9 8 7 7 10 8 10 11 10 11 12 13 14
21 19 17 14 13 13 14 13 11 12 13 15 11 7 9 8 10 12 12 12 13 13
18 17 18 17 16 16 15 15 15 15 11 5 6 10 11 8 9 10 13 13 13 14
18 17 16 16 17 19 16 14 12 8 7 8 6 7 6 5 8 11 11 13 14 15
14 14 16 16 15 13 12 10 8 9 8 6 7 7 6 5 7 10 10 11 13 16
13 13 13 13 11 9 7 7 8 6 6 7 6 5 5 3 8 10 10 11 14 16
11 11 11 9 8 7 7 7 7 8 7 6 5 5 5 3 8 10 11 14 18 17
9 9 9 7 7 6 6 8 8 7 5 4 5 6 6 3 8 11 13 19 19 18
Wind_Direction
219 216 216 218 217 217 218 219 223 227 231 238 245 251 256 262 270 279 287 295 301 307
216 212 212 212 211 213 215 219 221 225 230 235 242 246 249 256 265 276 286 294 299 304
214 211 210 209 210 212 216 218 221 227 233 240 244 246 250 257 267 278 286 291 295 299
208 206 207 207 210 212 211 212 216 223 229 235 240 246 251 258 268 277 282 288 293 297
204 206 209 209 204 205 207 208 213 219 224 228 233 243 256 267 276 282 284 288 292 298
195 199 198 196 196 199 203 207 210 211 213 217 230 247 268 293 298 290 290 294 297 300
184 183 186 189 195 200 201 201 202 202 211 223 236 267 283 275 267 281 292 293 296 301
175 177 183 190 200 210 207 207 216 229 240 255 251 248 260 270 281 283 289 298 304 306
175 180 192 197 203 212 223 234 242 246 233 235 240 241 262 263 282 291 301 306 307 306
187 190 196 207 220 231 232 233 222 214 215 232 253 259 259 262 270 288 299 307 309 307
198 202 216 217 225 224 217 213 214 228 225 230 238 247 261 274 272 286 300 307 308 310
204 209 216 224 223 217 208 212 223 222 228 230 247 261 272 254 283 299 307 306 314 319
221 223 221 215 205 205 205 205 212 213 218 229 244 264 273 293 289 298 302 311 316 322
219 214 207 203 204 205 216 218 208 210 223 248 269 278 278 270 290 301 315 309 313 323
Height
1454 1460 1465 1471 1476 1480 1484 1486 1489 1491 1493 1495 1496 1497 1498 1499 1499 1500 1501 1501 1502 1502
1452 1456 1460 1466 1471 1475 1479 1482 1485 1487 1489 1491 1493 1494 1495 1495 1496 1497 1497 1497 1498 1498
1451 1455 1459 1463 1467 1470 1474 1478 1481 1484 1487 1489 1490 1491 1492 1492 1492 1493 1493 1493 1494 1493
1450 1455 1459 1462 1465 1469 1472 1474 1478 1481 1483 1486 1488 1489 1489 1489 1489 1489 1490 1490 1490 1490
1446 1452 1458 1461 1463 1467 1471 1473 1475 1478 1480 1482 1483 1485 1486 1486 1486 1486 1487 1487 1486 1486
1442 1448 1455 1459 1462 1465 1468 1471 1473 1474 1476 1478 1480 1481 1482 1483 1484 1484 1483 1483 1482 1482
1441 1447 1453 1457 1462 1465 1467 1468 1471 1472 1473 1474 1476 1478 1479 1480 1480 1480 1480 1479 1479 1477
1443 1448 1453 1458 1461 1465 1466 1465 1467 1470 1470 1471 1472 1474 1476 1476 1476 1476 1476 1476 1475 1473
1444 1448 1451 1454 1457 1462 1464 1464 1464 1466 1466 1467 1469 1471 1471 1472 1472 1472 1471 1472 1471 1469
1443 1446 1450 1453 1456 1459 1459 1459 1460 1462 1464 1464 1466 1467 1468 1468 1468 1467 1468 1468 1467 1465
1442 1446 1449 1452 1454 1454 1454 1455 1458 1461 1462 1462 1462 1464 1464 1464 1465 1465 1465 1464 1463 1461
1443 1445 1448 1449 1450 1451 1451 1454 1458 1459 1460 1460 1459 1460 1461 1461 1462 1461 1462 1461 1460 1457
1442 1444 1445 1447 1447 1449 1450 1452 1456 1457 1456 1456 1457 1457 1457 1458 1458 1459 1458 1456 1455 1452
1441 1442 1443 1444 1446 1447 1448 1451 1452 1453 1454 1454 1454 1454 1453 1455 1456 1455 1454 1451 1448 1445